Weather History for Branson, MO

Change the Weather History Date:

Monday, August 5, 2013

  Actual Average (KHRO) Record (KHRO)
Temperature  
Mean Temperature 78 °F 79 °F  
Max Temperature 84 °F 90 °F 107 °F (1918)
Min Temperature 71 °F 68 °F 45 °F (1912)
Degree Days  
Heating Degree Days 0 0  
Month to date heating degree days 0  
Since 1 June heating degree days 6  
Since 1 July heating degree days 0  
Cooling Degree Days 12 14  
Month to date cooling degree days 70  
Year to date cooling degree days 888  
Since 1 June cooling degree days 749  
Growing Degree Days 28 (Base 50)    
Moisture  
Dew Point 72 °F    
Average Humidity 91    
Maximum Humidity 100    
Minimum Humidity 74    
Precipitation  
Precipitation 0.00 in 0.13 in 1.96 in (1993)
Month to date precipitation 0.64  
Year to date precipitation 26.02  
Snow  
Snow 0.00 in 0.00 in - ()
Month to date snowfall 0.0  
Since 1 June snowfall 0.0  
Since 1 July snowfall 0.0  
Snow Depth -    
Sea Level Pressure  
Sea Level Pressure 30.00 in    
Wind  
Wind Speed 8 mph (SE)    
Max Wind Speed 14 mph    
Max Gust Speed 23 mph    
Visibility 8 miles    
Events Rain , Thunderstorm    
T = Trace of Precipitation, MM = Missing Value Source: NWS Daily Summary

Daily Weather History Graph

Daily Weather History Graph

Search for Another Location

Airport:

Trip Planner

Search our weather history database for the weather conditions in past years. The results will help you decide how hot, cold, wet, or windy it might be!

Date:

Astronomy

Aug. 05, 2013 Rise Set
Actual Time 6:22 AM CDT 8:14 PM CDT
Civil Twilight 5:54 AM CDT 8:42 PM CDT
Nautical Twilight 5:20 AM CDT 9:16 PM CDT
Astronomical Twilight 4:43 AM CDT 9:52 PM CDT
Moon 5:17 AM CDT (8/5) 7:16 PM CDT (8/5)
Length of Visible Light 14h 48m
Length of Day
13h 52m
Waning Crescent, 1% of the Moon is Illuminated
Aug 5
Waning Crescent
Aug 6
New
Aug 14
First Quarter
Aug 20
Full
Aug 28
Last Quarter

Hourly Weather History & Observations

Time (CDT) Temp. Heat Index Dew Point Humidity Pressure Visibility Wind Dir Wind Speed Gust Speed Precip Events Conditions
12:15 AM 71.6 °F - 71.6 °F 100% 30.10 in 8.0 mi SE 9.2 mph - N/A   Overcast
12:35 AM 71.6 °F - 71.6 °F 100% 30.09 in 7.0 mi ESE 8.1 mph - N/A   Overcast
12:55 AM 71.6 °F - 71.6 °F 100% 30.08 in 5.0 mi ESE 11.5 mph - N/A   Overcast
1:15 AM 71.6 °F - 71.6 °F 100% 30.07 in 8.0 mi SE 9.2 mph - N/A   Overcast
1:35 AM 71.6 °F - 71.6 °F 100% 30.08 in 9.0 mi ESE 4.6 mph - N/A   Overcast
1:55 AM 71.6 °F - 71.6 °F 100% 30.07 in 7.0 mi ESE 5.8 mph - N/A   Overcast
2:15 AM 71.6 °F - 71.6 °F 100% 30.06 in 6.0 mi SE 8.1 mph - N/A   Overcast
2:35 AM 71.6 °F - 71.6 °F 100% 30.05 in 6.0 mi SE 10.4 mph - N/A   Overcast
2:55 AM 71.6 °F - 71.6 °F 100% 30.05 in 6.0 mi SE 9.2 mph - N/A   Overcast
3:15 AM 71.6 °F - 71.6 °F 100% 30.05 in 6.0 mi SE 9.2 mph - N/A   Overcast
3:35 AM 71.6 °F - 71.6 °F 100% 30.05 in 5.0 mi SSE 8.1 mph - N/A   Overcast
3:55 AM 71.6 °F - 71.6 °F 100% 30.05 in 5.0 mi SSE 4.6 mph - N/A   Overcast
4:15 AM 71.6 °F - 71.6 °F 100% 30.04 in 5.0 mi SE 9.2 mph - N/A   Overcast
4:35 AM 71.6 °F - 71.6 °F 100% 30.04 in 5.0 mi SSE 9.2 mph - N/A   Overcast
4:55 AM 71.6 °F - 71.6 °F 100% 30.04 in 5.0 mi SE 8.1 mph - N/A   Overcast
5:15 AM 71.6 °F - 71.6 °F 100% 30.05 in 5.0 mi SE 5.8 mph - N/A Thunderstorm Mostly Cloudy
5:35 AM 71.6 °F - 71.6 °F 100% 30.04 in 4.0 mi SE 5.8 mph - N/A   Overcast
5:55 AM 71.6 °F - 71.6 °F 100% 30.03 in 4.0 mi SE 6.9 mph - N/A   Overcast
6:15 AM 71.6 °F - 71.6 °F 100% 30.03 in 3.0 mi SE 8.1 mph - N/A Rain , Thunderstorm Light Rain
6:51 AM 71.6 °F - 71.6 °F 100% 30.02 in 5.0 mi SSE 9.2 mph - N/A   Overcast
7:46 AM 71.6 °F - 71.6 °F 100% 30.03 in 4.0 mi South 5.8 mph - N/A   Overcast
8:47 AM 73.4 °F - 71.6 °F 94% 30.03 in 5.0 mi Calm Calm - N/A   Overcast
9:53 AM 77.0 °F - 73.4 °F 89% 30.03 in 7.0 mi Calm Calm - N/A   Overcast
10:48 AM 77.0 °F - 75.2 °F 94% 30.02 in 7.0 mi Calm Calm - N/A   Overcast
11:50 AM 80.6 °F 86.2 °F 75.2 °F 84% 30.01 in 7.0 mi Calm Calm - N/A   Mostly Cloudy
12:46 PM 82.4 °F 90.9 °F 77.0 °F 84% 30.02 in 10.0 mi Calm Calm - N/A   Overcast
1:53 PM 77.0 °F - 77.0 °F 100% 30.01 in 7.0 mi SE 8.1 mph - N/A   Overcast
2:45 PM 80.6 °F 87.1 °F 77.0 °F 89% 29.98 in 10.0 mi ESE 8.1 mph - N/A   Overcast
3:45 PM 80.6 °F 86.2 °F 75.2 °F 84% 29.96 in 10.0 mi SE 9.2 mph - N/A   Overcast
4:45 PM 82.4 °F 89.5 °F 75.2 °F 79% 29.94 in 10.0 mi SSE 5.8 mph - N/A   Mostly Cloudy
5:45 PM 84.2 °F 94.1 °F 77.0 °F 79% 29.92 in 10.0 mi South 8.1 mph - N/A   Mostly Cloudy
6:50 PM 84.2 °F 94.1 °F 77.0 °F 79% 29.91 in 10.0 mi Calm Calm - N/A   Mostly Cloudy
7:45 PM 82.4 °F 90.9 °F 77.0 °F 84% 29.94 in 10.0 mi ENE 6.9 mph - N/A   Overcast
8:25 PM 80.6 °F 86.2 °F 75.2 °F 84% 29.96 in 10.0 mi East 9.2 mph - N/A Thunderstorm Thunderstorm
8:45 PM 77.0 °F - 68.0 °F 74% 29.94 in 10.0 mi ESE 11.5 mph 23.0 mph N/A Thunderstorm Thunderstorm
8:55 PM 77.0 °F - 68.0 °F 74% 29.91 in 10.0 mi SSE 13.8 mph - N/A Thunderstorm Overcast
9:15 PM 77.0 °F - 69.8 °F 78% 29.92 in 10.0 mi SE 13.8 mph - N/A   Scattered Clouds
9:35 PM 77.0 °F - 69.8 °F 78% 29.93 in 10.0 mi SSE 10.4 mph 16.1 mph N/A   Clear
9:55 PM 75.2 °F - 69.8 °F 83% 29.92 in 10.0 mi SSE 9.2 mph - N/A   Clear
10:15 PM 75.2 °F - 69.8 °F 83% 29.91 in 10.0 mi South 9.2 mph - N/A   Clear
10:35 PM 75.2 °F - 69.8 °F 83% 29.91 in 10.0 mi SSE 8.1 mph - N/A   Clear
10:55 PM 75.2 °F - 71.6 °F 89% 29.92 in 10.0 mi SSE 5.8 mph - N/A   Clear
11:15 PM 75.2 °F - 69.8 °F 83% 29.93 in 10.0 mi Calm Calm - N/A   Clear
11:35 PM 75.2 °F - 68.0 °F 78% 29.93 in 10.0 mi SSE 9.2 mph - N/A   Clear
11:55 PM 75.2 °F - 68.0 °F 78% 29.94 in 10.0 mi SSE 9.2 mph - N/A   Clear